Weather in Staraya Ladoga

Russia / Saint-Petersburg and Leningrad Oblast     60°00′04″N   32°17′32″E
temp.,
°C
wind,
m/s
gust,
m/s
humid.,
%
clouds,
%
prec.,
mm/h
press.,
hPa
HPBL,
m
27 september, mon
mon2700:00+8n269753 0.0 1024160
03:00+9n2695100 0.0 1026185
06:00+7nne239777 0.0 102759
09:00+9nne248992 0.0 1029200
12:00+12nne347214 0.0 1030545
15:00+12n34715 0.0 1030601
18:00+9nnw25895 0.0 1030132
21:00+8nne22950 0.0 103146
28 september, tue
tue2800:00+6e23950 0.0 103251
03:00+6e22964 0.0 103320
06:00+5e22965 0.0 103327
09:00+8e23845 0.0 1034160
12:00+12ene24615 0.0 1034721
15:00+13e235668 0.0 10341263
18:00+11ese1170100 0.0 103427
21:00+9s248062 0.0 1035105
29 september, wed
wed2900:00+6s22915 0.0 103620
03:00+5s11925 0.0 103713
06:00+4s11935 0.0 103714
09:00+7s12795 0.0 1037130
12:00+12s12605 0.0 1037588
15:00+13s115415 0.0 1036907
18:00+9ese017661 0.0 103510
21:00+6s118239 0.0 103610
30 september, thu
thu3000:00+6ssw11846 0.0 103610
03:00+5ssw11875 0.0 103611
06:00+4s11905 0.0 103612
09:00+7s12775 0.0 1036116
12:00+12sse22585 0.0 1035553
15:00+13sse23555 0.0 1034821
18:00+10sse22775 0.0 103320
21:00+7s23885 0.0 103346
1 october, fri
fri100:00+6s24915 0.0 103370
03:00+5s259343 0.0 1033102
06:00+4s269654 0.0 1032128
09:00+7s398242 0.0 1032273
12:00+11s475874 0.0 1031675
15:00+12s46558 0.0 1030970
18:00+9s377318 0.0 1029193
21:00+6s3108670 0.0 1029217